Location: RyutenAO
(34.8939°N, 134.0022°E)
Time: 16:03:06
(UTC+09:00)

NOAA 19 - Visible Passes

Search period start: 01 April 2023 00:00
Search period end: 11 April 2023 00:00
Orbit: 839 x 861 km, 99.1° (Epoch: 31 March)

Date Brightness Start Highest point End Pass type
(mag) Time Alt. Az. Time Alt. Az. Time Alt. Az.
01 Apr 6.4 18:56:18 10° ESE 19:00:30 23° ENE 19:04:41 10° NNE visible
01 Apr 6.3 20:37:08 18° SSW 20:40:50 41° W 20:45:58 10° NNW visible
02 Apr 6.7 18:45:04 10° ESE 18:48:37 18° ENE 18:52:09 10° NNE visible
02 Apr 5.8 20:24:54 19° S 20:28:46 53° W 20:34:07 10° NNW visible
03 Apr 5.4 20:12:41 18° S 20:16:44 70° WSW 20:22:12 10° NNW visible
04 Apr 5.1 20:00:28 17° SSE 20:04:43 89° ENE 20:10:12 10° NNW visible
05 Apr 5.1 19:48:14 15° SSE 19:52:44 69° ENE 19:58:09 10° N visible
05 Apr 7.8 21:31:36 10° WSW 21:33:46 12° W 21:35:58 10° WNW visible
06 Apr 5.3 19:36:01 13° SE 19:40:45 53° ENE 19:46:02 10° N visible
06 Apr 7.6 21:18:14 10° SW 21:21:38 17° W 21:25:02 10° NW visible
07 Apr 5.7 19:23:47 10° SE 19:28:47 41° ENE 19:33:51 10° N visible
07 Apr 7.3 21:05:46 12° SW 21:09:31 22° W 21:13:40 10° NW visible
08 Apr 6.0 19:12:06 10° SE 19:16:51 31° ENE 19:21:35 10° N visible
08 Apr 6.9 20:53:32 14° SSW 20:57:24 29° W 21:02:05 10° NW visible
09 Apr 6.3 19:00:37 10° ESE 19:04:56 25° ENE 19:09:14 10° NNE visible
09 Apr 6.4 20:41:19 15° SSW 20:45:19 37° W 20:50:21 10° NNW visible
10 Apr 6.0 20:29:05 16° S 20:33:15 49° W 20:38:31 10° NNW visible
